This demonstration page uses our WeatherBlox Daily Observations layout. Learn more.

36.17497, -115.13722

Hourly Observations for August 1, 2015

Temp ( °F °C ) Dew Point ( °F °C ) Humidity (%) Winds ( mph kmh ) Pressure ( in mb ) Visibility ( mi km ) Precip ( " mm )
12:53 am 00:53 Clear 91 33 54 12 28 28 Calm 29.77 1008 10 16.09344 0 0
1:53 am 01:53 Clear 91 33 54 12 28 28 Calm 29.77 1008 10 16.09344 0 0
2:53 am 02:53 Clear 90 32 55 13 31 31 Calm 29.74 1007 10 16.09344 0 0
3:53 am 03:53 Clear 90 32 55 13 31 31 Calm 29.74 1007 10 16.09344 0 0
4:53 am 04:53 Clear 88 31 54 12 31 31 E 6 9 29.77 1008 10 16.09344 0 0
5:53 am 05:53 Sunny 88 31 54 12 31 31 ESE 6 9 29.8 1009 10 16.09344 0 0
6:53 am 06:53 Sunny 90 32 55 13 31 31 ENE 5 7 29.83 1010 10 16.09344 0 0
7:53 am 07:53 Mostly Sunny 90 32 57 14 33 33 SE 6 9 29.83 1010 10 16.09344 0 0
8:53 am 08:53 Mostly Sunny 91 33 57 14 32 32 ESE 12 19 29.8 1009 10 16.09344 0 0
9:53 am 09:53 Mostly Cloudy 91 33 59 15 34 34 ESE 9 15 29.83 1010 10 16.09344 0 0
10:53 am 10:53 Mostly Cloudy with Light Rain 88 31 61 16 40 40 S 16 26 29.85 1011 10 16.09344 0.001 0.001
11:49 am 11:49 Cloudy 84 29 61 16 45 45 SE 12 19 29.88 1012 10 16.09344 0.001 0.001
11:53 am 11:53 Cloudy 84 29 61 16 45 45 ESE 12 19 29.94 1014 10 16.09344 0.001 0.001
12:53 pm 12:53 Cloudy with Light Rain 79 26 64 18 61 61 NNW 13 20 29.94 1014 10 16.09344 0.001 0.001
1:53 pm 13:53 Mostly Cloudy with Light Rain 79 26 66 19 65 65 NW 17 28 29.91 1013 10 16.09344 0.001 0.001
2:53 pm 14:53 Cloudy with Light Rain 79 26 64 18 61 61 NW 15 24 29.88 1012 10 16.09344 0.001 0.001
3:53 pm 15:53 Partly Cloudy with Light Rain 79 26 66 19 65 65 N 5 7 29.85 1011 10 16.09344 0.001 0.001
4:53 pm 16:53 Sunny 102 39 54 12 20 20 NNW 16 26 29.71 1006 10 16.09344 0 0
5:53 pm 17:53 Mostly Cloudy 81 27 61 16 51 51 NNW 21 33 29.83 1010 10 16.09344 0.001 0.001
6:53 pm 18:53 Sunny 82 28 57 14 42 42 NNW 16 26 29.77 1008 10 16.09344 0 0
7:53 pm 19:53 Clear 84 29 55 13 37 37 NNW 16 26 29.77 1008 10 16.09344 0 0
8:53 pm 20:53 Clear 81 27 57 14 45 45 N 13 20 29.8 1009 10 16.09344 0 0
9:53 pm 21:53 Clear 82 28 59 15 45 45 N 12 19 29.8 1009 10 16.09344 0 0
10:53 pm 22:53 Mostly Clear 82 28 59 15 45 45 N 12 19 29.77 1008 10 16.09344 0 0
11:53 pm 23:53 Clear 81 27 59 15 48 48 NNW 14 22 29.8 1009 10 16.09344 0 0

Powered by AerisWeather